SAB404 LKPR-LRTR

Flight info

Callsign SAB404
Flight time 1h 20m
Altitude 37000
Route VOZ DCT NELPA DCT PISAM DCT PESAT DCT BUG DCT TEGRI
Aircraft B737/M-SDE2E3FGHIRWXY/LB1

Departure

Time 2026-04-24 12:01
Airport Václav Havel Airport Prague (LKPR)

Arrival

Time 2026-04-24 13:21
Airport Timișoara Traian Vuia International Airport (LRTR)
Time Latitude Longitude Altitude Speed Heading
2026-04-24 11:51 50.10630 14.26206 1258 ft 0 kts 34°
2026-04-24 11:52 50.10630 14.26207 1258 ft 0 kts 34°
2026-04-24 11:53 50.10622 14.26198 1258 ft 2 kts 34°
2026-04-24 11:54 50.10608 14.26183 1258 ft 3 kts 33°
2026-04-24 11:54 50.10589 14.26174 1258 ft 3 kts 353°
2026-04-24 11:54 50.10571 14.26187 1258 ft 3 kts 315°
2026-04-24 11:54 50.10567 14.26195 1258 ft 0 kts 304°
2026-04-24 11:55 50.10567 14.26194 1258 ft 0 kts 304°
2026-04-24 11:55 50.10570 14.26186 1258 ft 0 kts 293°
2026-04-24 11:55 50.10538 14.26131 1258 ft 9 kts 210°
2026-04-24 11:56 50.10517 14.26030 1258 ft 17 kts 259°
2026-04-24 11:56 50.10474 14.25995 1258 ft 9 kts 111°
2026-04-24 11:56 50.10429 14.26102 1258 ft 17 kts 125°
2026-04-24 11:56 50.10356 14.26256 1258 ft 19 kts 128°
2026-04-24 11:57 50.10270 14.26424 1258 ft 21 kts 128°
2026-04-24 11:57 50.10183 14.26614 1258 ft 23 kts 122°
2026-04-24 11:57 50.10097 14.26809 1258 ft 21 kts 120°
2026-04-24 11:57 50.10003 14.26999 1258 ft 23 kts 129°
2026-04-24 11:58 50.09896 14.27200 1258 ft 25 kts 129°
2026-04-24 11:58 50.09776 14.27409 1258 ft 27 kts 135°
2026-04-24 11:58 50.09639 14.27621 1258 ft 29 kts 136°
2026-04-24 11:58 50.09491 14.27842 1258 ft 30 kts 136°
2026-04-24 11:59 50.09338 14.28083 1258 ft 32 kts 133°
2026-04-24 11:59 50.09206 14.28257 1258 ft 18 kts 163°
2026-04-24 11:59 50.09104 14.28188 1258 ft 16 kts 242°
2026-04-24 11:59 50.09109 14.28028 1258 ft 16 kts 288°
2026-04-24 12:00 50.09124 14.27977 1258 ft 0 kts 300°
2026-04-24 12:00 50.09131 14.27960 1258 ft 13 kts 302°
2026-04-24 12:00 50.09413 14.27394 1258 ft 116 kts 307°
2026-04-24 12:00 50.10066 14.26066 1486 ft 178 kts 308°
2026-04-24 12:01 50.10798 14.24548 2946 ft 174 kts 308°
2026-04-24 12:01 50.11554 14.22974 4120 ft 191 kts 307°
2026-04-24 12:01 50.12397 14.21223 5075 ft 213 kts 306°
2026-04-24 12:01 50.13340 14.19273 6007 ft 236 kts 306°
2026-04-24 12:02 50.14358 14.17162 7048 ft 251 kts 307°
2026-04-24 12:02 50.15424 14.14950 8244 ft 258 kts 307°
2026-04-24 12:02 50.16510 14.12694 9464 ft 263 kts 307°
2026-04-24 12:02 50.17481 14.10238 10025 ft 270 kts 295°
2026-04-24 12:03 50.17722 14.07248 10184 ft 301 kts 268°
2026-04-24 12:03 50.16989 14.04069 10977 ft 325 kts 245°
2026-04-24 12:03 50.15548 14.01222 11861 ft 345 kts 229°
2026-04-24 12:03 50.13504 13.99088 12809 ft 365 kts 207°
2026-04-24 12:04 50.10992 13.98240 13933 ft 376 kts 184°
2026-04-24 12:04 50.08402 13.98942 15089 ft 383 kts 160°
2026-04-24 12:04 50.06079 14.01006 16319 ft 386 kts 144°
2026-04-24 12:04 50.03775 14.03206 17473 ft 392 kts 150°
2026-04-24 12:05 50.01305 14.05083 18584 ft 398 kts 154°
2026-04-24 12:05 49.98752 14.06855 19627 ft 404 kts 155°
2026-04-24 12:05 49.96168 14.08645 20572 ft 410 kts 154°
2026-04-24 12:05 49.93573 14.10445 21480 ft 416 kts 154°
2026-04-24 12:06 49.90909 14.12293 22329 ft 422 kts 154°
2026-04-24 12:06 49.88214 14.14161 23170 ft 427 kts 154°
2026-04-24 12:06 49.85642 14.16504 23913 ft 430 kts 140°
2026-04-24 12:06 49.83577 14.19830 24691 ft 429 kts 125°
2026-04-24 12:07 49.81847 14.23607 25376 ft 433 kts 122°
2026-04-24 12:07 49.80063 14.27408 26035 ft 438 kts 124°
2026-04-24 12:07 49.78213 14.31187 26669 ft 443 kts 124°
2026-04-24 12:07 49.76343 14.35001 27255 ft 447 kts 124°
2026-04-24 12:08 49.74448 14.38856 27760 ft 453 kts 125°
2026-04-24 12:08 49.72528 14.42766 28250 ft 458 kts 125°
2026-04-24 12:08 49.70615 14.46657 28792 ft 461 kts 125°
2026-04-24 12:08 49.68664 14.50617 29288 ft 465 kts 125°
2026-04-24 12:09 49.66699 14.54601 29765 ft 468 kts 124°
2026-04-24 12:09 49.64905 14.58803 30257 ft 469 kts 118°
2026-04-24 12:09 49.63219 14.63128 30718 ft 471 kts 118°
2026-04-24 12:09 49.61474 14.67428 31144 ft 475 kts 119°
2026-04-24 12:10 49.59703 14.71741 31557 ft 477 kts 119°
2026-04-24 12:10 49.57922 14.76075 32003 ft 478 kts 119°
2026-04-24 12:10 49.56140 14.80409 32518 ft 478 kts 119°
2026-04-24 12:11 49.51414 14.87592 33506 ft 485 kts 148°
2026-04-24 12:11 49.48319 14.89504 33966 ft 487 kts 165°
2026-04-24 12:11 49.44978 14.90355 34454 ft 486 kts 172°
2026-04-24 12:11 49.41626 14.91213 34921 ft 486 kts 168°
2026-04-24 12:12 49.38320 14.92297 35381 ft 485 kts 167°
2026-04-24 12:12 49.35016 14.93391 35838 ft 484 kts 167°
2026-04-24 12:12 49.31718 14.94459 36285 ft 484 kts 167°
2026-04-24 12:12 49.28503 14.95705 36673 ft 483 kts 160°
2026-04-24 12:13 49.25533 14.98060 37034 ft 479 kts 143°
2026-04-24 12:13 49.20334 15.04380 37094 ft 476 kts 141°
2026-04-24 12:14 49.14965 15.10332 37093 ft 476 kts 141°
2026-04-24 12:14 49.09641 15.16245 37095 ft 476 kts 141°
2026-04-24 12:15 49.04280 15.22187 37094 ft 475 kts 141°
2026-04-24 12:15 48.98920 15.28111 37092 ft 475 kts 141°
2026-04-24 12:16 48.93596 15.33980 37091 ft 475 kts 141°
2026-04-24 12:16 48.88253 15.39904 37086 ft 473 kts 139°
2026-04-24 12:17 48.83639 15.46971 37084 ft 470 kts 131°
2026-04-24 12:17 48.78905 15.53861 37089 ft 471 kts 133°
2026-04-24 12:18 48.74181 15.60716 37086 ft 470 kts 132°
2026-04-24 12:18 48.69475 15.67528 37085 ft 470 kts 132°
2026-04-24 12:19 48.64742 15.74360 37088 ft 469 kts 132°
2026-04-24 12:19 48.60013 15.81169 37078 ft 469 kts 132°
2026-04-24 12:20 48.55290 15.87951 37069 ft 468 kts 132°
2026-04-24 12:20 48.50566 15.94716 37066 ft 468 kts 132°
2026-04-24 12:21 48.45828 16.01482 37063 ft 468 kts 132°
2026-04-24 12:21 48.41098 16.08219 37062 ft 469 kts 132°
2026-04-24 12:22 48.36384 16.14916 37058 ft 468 kts 132°
2026-04-24 12:22 48.31644 16.21630 37057 ft 468 kts 132°
2026-04-24 12:23 48.26891 16.28346 37055 ft 468 kts 132°
2026-04-24 12:23 48.22168 16.35001 37053 ft 468 kts 132°
2026-04-24 12:24 48.17410 16.41688 37053 ft 468 kts 133°
2026-04-24 12:24 48.12647 16.48364 37052 ft 469 kts 133°
2026-04-24 12:25 48.07900 16.54999 37052 ft 469 kts 133°
2026-04-24 12:25 48.03122 16.61660 37053 ft 469 kts 133°
2026-04-24 12:26 47.98341 16.68310 37055 ft 469 kts 132°
2026-04-24 12:26 47.93591 16.74895 37055 ft 466 kts 132°
2026-04-24 12:27 47.88839 16.81469 37054 ft 465 kts 132°
2026-04-24 12:27 47.84091 16.88019 37056 ft 465 kts 133°
2026-04-24 12:28 47.79330 16.94572 37058 ft 465 kts 132°
2026-04-24 12:28 47.74589 17.01077 37061 ft 466 kts 132°
2026-04-24 12:29 47.70304 17.08151 37067 ft 455 kts 116°
2026-04-24 12:29 47.67331 17.16383 37062 ft 452 kts 113°
2026-04-24 12:30 47.64249 17.24535 37072 ft 453 kts 114°
2026-04-24 12:30 47.61161 17.32680 37067 ft 453 kts 114°
2026-04-24 12:31 47.58084 17.40776 37069 ft 453 kts 114°
2026-04-24 12:31 47.54982 17.48913 37071 ft 454 kts 114°
2026-04-24 12:32 47.51869 17.57054 37070 ft 454 kts 114°
2026-04-24 12:32 47.48753 17.65179 37069 ft 454 kts 114°
2026-04-24 12:33 47.45643 17.73262 37067 ft 454 kts 114°
2026-04-24 12:33 47.42512 17.81375 37066 ft 454 kts 114°
2026-04-24 12:34 47.39375 17.89480 37065 ft 454 kts 114°
2026-04-24 12:34 47.36252 17.97526 37064 ft 454 kts 114°
2026-04-24 12:35 47.33107 18.05603 37054 ft 454 kts 114°
2026-04-24 12:35 47.29949 18.13687 37053 ft 454 kts 114°
2026-04-24 12:36 47.26797 18.21733 37051 ft 453 kts 114°
2026-04-24 12:36 47.23636 18.29782 37045 ft 453 kts 114°
2026-04-24 12:37 47.20495 18.37751 37041 ft 453 kts 114°
2026-04-24 12:37 47.17332 18.45753 37039 ft 453 kts 115°
2026-04-24 12:38 47.14163 18.53751 37023 ft 452 kts 115°
2026-04-24 12:38 47.10989 18.61736 37022 ft 452 kts 115°
2026-04-24 12:39 47.04645 18.77623 37020 ft 452 kts 115°
2026-04-24 12:40 47.01986 18.84253 37018 ft 452 kts 115°
2026-04-24 12:40 46.98277 18.93478 37019 ft 451 kts 115°
2026-04-24 12:41 46.95600 19.00115 37016 ft 451 kts 115°
2026-04-24 12:41 46.92419 19.07983 37020 ft 452 kts 115°
2026-04-24 12:42 46.89213 19.15887 37017 ft 452 kts 115°
2026-04-24 12:42 46.85994 19.23804 37026 ft 452 kts 115°
2026-04-24 12:43 46.82769 19.31711 37018 ft 452 kts 115°
2026-04-24 12:43 46.79563 19.39548 37021 ft 452 kts 115°
2026-04-24 12:44 46.76329 19.47431 37022 ft 452 kts 115°
2026-04-24 12:44 46.73096 19.55289 37021 ft 452 kts 115°
2026-04-24 12:45 46.69853 19.63149 37021 ft 452 kts 115°
2026-04-24 12:45 46.66739 19.71008 37014 ft 446 kts 108°
2026-04-24 12:46 46.64593 19.79425 37015 ft 443 kts 106°
2026-04-24 12:46 46.62215 19.87733 36721 ft 442 kts 107°
2026-04-24 12:46 46.61051 19.91799 36234 ft 439 kts 107°
2026-04-24 12:47 46.59858 19.95966 35729 ft 441 kts 107°
2026-04-24 12:47 46.58691 20.00033 35117 ft 442 kts 107°
2026-04-24 12:47 46.57504 20.04169 34454 ft 444 kts 107°
2026-04-24 12:47 46.56308 20.08324 33793 ft 446 kts 107°
2026-04-24 12:48 46.55109 20.12483 33199 ft 445 kts 107°
2026-04-24 12:48 46.53915 20.16616 32657 ft 442 kts 107°
2026-04-24 12:48 46.52728 20.20723 32102 ft 438 kts 107°
2026-04-24 12:48 46.51566 20.24734 31553 ft 434 kts 107°
2026-04-24 12:49 46.50398 20.28757 31010 ft 430 kts 108°
2026-04-24 12:49 46.49237 20.32753 30471 ft 427 kts 108°
2026-04-24 12:49 46.48086 20.36706 29939 ft 424 kts 108°
2026-04-24 12:49 46.46946 20.40619 29411 ft 421 kts 108°
2026-04-24 12:50 46.45806 20.44520 28884 ft 418 kts 108°
2026-04-24 12:50 46.44674 20.48392 28360 ft 415 kts 108°
2026-04-24 12:50 46.43545 20.52245 27836 ft 413 kts 108°
2026-04-24 12:50 46.42423 20.56072 27314 ft 411 kts 108°
2026-04-24 12:51 46.41317 20.59834 26800 ft 408 kts 108°
2026-04-24 12:51 46.40208 20.63602 26285 ft 406 kts 108°
2026-04-24 12:51 46.39100 20.67362 25773 ft 404 kts 108°
2026-04-24 12:51 46.37994 20.71110 25268 ft 401 kts 108°
2026-04-24 12:52 46.36898 20.74816 24767 ft 399 kts 108°
2026-04-24 12:52 46.35819 20.78460 24271 ft 397 kts 108°
2026-04-24 12:52 46.34732 20.82128 23770 ft 395 kts 108°
2026-04-24 12:52 46.33649 20.85775 23268 ft 392 kts 108°
2026-04-24 12:53 46.32571 20.89399 22510 ft 393 kts 108°
2026-04-24 12:53 46.31485 20.93045 21659 ft 397 kts 108°
2026-04-24 12:53 46.30385 20.96734 20836 ft 399 kts 109°
2026-04-24 12:53 46.29286 21.00412 20178 ft 396 kts 109°
2026-04-24 12:54 46.28198 21.04049 19541 ft 392 kts 109°
2026-04-24 12:54 46.26994 21.07537 18583 ft 402 kts 120°
2026-04-24 12:54 46.25099 21.10578 17294 ft 416 kts 134°
2026-04-24 12:54 46.22586 21.12966 14969 ft 457 kts 155°
2026-04-24 12:55 46.19518 21.14107 14301 ft 447 kts 171°
2026-04-24 12:55 46.16518 21.14429 14298 ft 418 kts 179°
2026-04-24 12:55 46.13704 21.14425 14325 ft 391 kts 181°
2026-04-24 12:55 46.11036 21.14426 14048 ft 376 kts 181°
2026-04-24 12:56 46.08443 21.14443 13664 ft 365 kts 181°
2026-04-24 12:56 46.05969 21.14461 13288 ft 355 kts 181°
2026-04-24 12:56 46.03530 21.14480 12911 ft 345 kts 181°
2026-04-24 12:56 46.01153 21.14500 12533 ft 336 kts 181°
2026-04-24 12:57 45.98851 21.14774 12120 ft 331 kts 168°
2026-04-24 12:57 45.96784 21.16119 11754 ft 323 kts 146°
2026-04-24 12:57 45.95246 21.18380 11379 ft 313 kts 122°
2026-04-24 12:57 45.94420 21.21208 11061 ft 302 kts 104°
2026-04-24 12:58 45.93901 21.24056 10808 ft 295 kts 103°
2026-04-24 12:58 45.93315 21.26849 10541 ft 289 kts 106°
2026-04-24 12:58 45.92668 21.29559 10283 ft 284 kts 108°
2026-04-24 12:58 45.92007 21.32205 10027 ft 279 kts 108°
2026-04-24 12:59 45.91352 21.34814 9776 ft 275 kts 108°
2026-04-24 12:59 45.90709 21.37378 9533 ft 271 kts 108°
2026-04-24 12:59 45.90072 21.39911 9290 ft 268 kts 109°
2026-04-24 12:59 45.89443 21.42413 9050 ft 265 kts 109°
2026-04-24 13:00 45.88819 21.44890 8809 ft 262 kts 109°
2026-04-24 13:00 45.88203 21.47332 8563 ft 260 kts 109°
2026-04-24 13:00 45.87597 21.49736 8317 ft 258 kts 109°
2026-04-24 13:00 45.86988 21.52145 8070 ft 256 kts 109°
2026-04-24 13:01 45.86383 21.54541 7821 ft 255 kts 109°
2026-04-24 13:01 45.85779 21.56925 7573 ft 253 kts 109°
2026-04-24 13:01 45.85179 21.59293 7326 ft 252 kts 109°
2026-04-24 13:01 45.84580 21.61652 7079 ft 251 kts 109°
2026-04-24 13:02 45.83982 21.64009 6832 ft 250 kts 109°
2026-04-24 13:02 45.83386 21.66351 6589 ft 250 kts 109°
2026-04-24 13:02 45.82794 21.68680 6344 ft 249 kts 109°
2026-04-24 13:02 45.82200 21.71010 6102 ft 248 kts 109°
2026-04-24 13:03 45.81609 21.73328 5868 ft 247 kts 109°
2026-04-24 13:03 45.81025 21.75617 5627 ft 247 kts 109°
2026-04-24 13:03 45.80435 21.77923 5390 ft 246 kts 109°
2026-04-24 13:03 45.79847 21.80225 5155 ft 245 kts 109°
2026-04-24 13:04 45.79259 21.82521 4918 ft 245 kts 109°
2026-04-24 13:04 45.78673 21.84806 4684 ft 245 kts 109°
2026-04-24 13:04 45.78086 21.87096 4506 ft 241 kts 109°
2026-04-24 13:04 45.77447 21.89293 4339 ft 239 kts 119°
2026-04-24 13:05 45.76262 21.90882 4203 ft 230 kts 150°
2026-04-24 13:05 45.74769 21.91358 4075 ft 215 kts 181°
2026-04-24 13:05 45.73358 21.90921 4000 ft 201 kts 202°
2026-04-24 13:05 45.72045 21.90345 3960 ft 199 kts 188°
2026-04-24 13:06 45.70747 21.90841 3980 ft 200 kts 153°
2026-04-24 13:06 45.69724 21.92184 4027 ft 199 kts 134°
2026-04-24 13:06 45.68979 21.93853 3972 ft 200 kts 110°
2026-04-24 13:06 45.68671 21.95798 3912 ft 204 kts 99°
2026-04-24 13:07 45.68553 21.97871 3448 ft 215 kts 89°
2026-04-24 13:07 45.68577 21.99982 3326 ft 207 kts 88°
2026-04-24 13:07 45.68193 22.01887 3260 ft 202 kts 119°
2026-04-24 13:07 45.67118 22.03102 3284 ft 199 kts 156°
2026-04-24 13:08 45.65773 22.03191 3296 ft 194 kts 194°
2026-04-24 13:08 45.64690 22.02157 3298 ft 187 kts 231°
2026-04-24 13:08 45.64313 22.00497 3300 ft 173 kts 269°
2026-04-24 13:09 45.65053 21.97317 3304 ft 167 kts 300°
2026-04-24 13:09 45.65714 21.96088 3297 ft 150 kts 310°
2026-04-24 13:09 45.66388 21.94970 3288 ft 148 kts 310°
2026-04-24 13:09 45.66913 21.93719 3261 ft 149 kts 291°
2026-04-24 13:10 45.67093 21.92263 3300 ft 149 kts 279°
2026-04-24 13:10 45.67215 21.90794 3296 ft 149 kts 279°
2026-04-24 13:10 45.67388 21.89353 3294 ft 149 kts 282°
2026-04-24 13:10 45.67616 21.87910 3297 ft 149 kts 285°
2026-04-24 13:11 45.67884 21.86485 3298 ft 149 kts 287°
2026-04-24 13:11 45.68180 21.85068 3299 ft 149 kts 288°
2026-04-24 13:11 45.68491 21.83655 3296 ft 148 kts 289°
2026-04-24 13:11 45.68814 21.82256 3300 ft 148 kts 290°
2026-04-24 13:12 45.69148 21.80857 3298 ft 149 kts 290°
2026-04-24 13:12 45.69489 21.79461 3299 ft 148 kts 290°
2026-04-24 13:12 45.69834 21.78070 3296 ft 148 kts 291°
2026-04-24 13:12 45.70182 21.76681 3300 ft 148 kts 291°
2026-04-24 13:13 45.70526 21.75312 3302 ft 148 kts 291°
2026-04-24 13:13 45.70876 21.73925 3301 ft 148 kts 291°
2026-04-24 13:13 45.71226 21.72537 3298 ft 148 kts 291°
2026-04-24 13:13 45.71576 21.71149 3302 ft 148 kts 291°
2026-04-24 13:14 45.71927 21.69761 3302 ft 148 kts 291°
2026-04-24 13:14 45.72277 21.68376 3300 ft 147 kts 291°
2026-04-24 13:14 45.72625 21.66997 3296 ft 147 kts 291°
2026-04-24 13:14 45.72974 21.65615 3298 ft 147 kts 291°
2026-04-24 13:15 45.73318 21.64247 3300 ft 148 kts 291°
2026-04-24 13:15 45.73665 21.62869 3304 ft 147 kts 291°
2026-04-24 13:15 45.74012 21.61491 3297 ft 147 kts 291°
2026-04-24 13:15 45.74357 21.60121 3306 ft 147 kts 291°
2026-04-24 13:16 45.74707 21.58733 3304 ft 147 kts 291°
2026-04-24 13:16 45.75056 21.57353 3297 ft 147 kts 291°
2026-04-24 13:16 45.75403 21.55976 3279 ft 147 kts 291°
2026-04-24 13:16 45.75751 21.54594 3125 ft 147 kts 291°
2026-04-24 13:17 45.76096 21.53218 2939 ft 146 kts 291°
2026-04-24 13:17 45.76424 21.51913 2777 ft 132 kts 291°
2026-04-24 13:17 45.76727 21.50707 2560 ft 126 kts 291°
2026-04-24 13:17 45.77023 21.49532 2382 ft 125 kts 291°
2026-04-24 13:18 45.77319 21.48357 2223 ft 125 kts 291°
2026-04-24 13:18 45.77616 21.47181 2057 ft 126 kts 291°
2026-04-24 13:18 45.77913 21.46000 1885 ft 126 kts 291°
2026-04-24 13:18 45.78209 21.44826 1711 ft 126 kts 290°
2026-04-24 13:19 45.78510 21.43631 1548 ft 128 kts 290°
2026-04-24 13:19 45.78810 21.42435 1372 ft 127 kts 290°
2026-04-24 13:19 45.79109 21.41246 1195 ft 126 kts 290°
2026-04-24 13:19 45.79398 21.40095 1011 ft 123 kts 290°
2026-04-24 13:20 45.79691 21.38930 859 ft 124 kts 290°
2026-04-24 13:20 45.79986 21.37757 688 ft 124 kts 290°
2026-04-24 13:20 45.80270 21.36627 486 ft 119 kts 290°
2026-04-24 13:20 45.80537 21.35539 360 ft 109 kts 289°
2026-04-24 13:21 45.80758 21.34697 359 ft 80 kts 293°
2026-04-24 13:21 45.80924 21.34068 359 ft 62 kts 289°
2026-04-24 13:21 45.81011 21.33641 359 ft 31 kts 272°
2026-04-24 13:21 45.80939 21.33524 359 ft 13 kts 170°
2026-04-24 13:22 45.80872 21.33484 359 ft 13 kts 246°
2026-04-24 13:22 45.80888 21.33325 359 ft 22 kts 291°
2026-04-24 13:22 45.80952 21.33066 359 ft 34 kts 290°
2026-04-24 13:22 45.81042 21.32703 359 ft 38 kts 289°
2026-04-24 13:23 45.81089 21.32488 359 ft 9 kts 257°
2026-04-24 13:23 45.81054 21.32434 359 ft 7 kts 249°
2026-04-24 13:23 45.81063 21.32347 359 ft 12 kts 289°
2026-04-24 13:23 45.81077 21.32261 359 ft 6 kts 253°
2026-04-24 13:24 45.81054 21.32231 359 ft 0 kts 202°